sat.trackr.live / text

‹ back to catalog

STARLINK-31102

NORAD 58715 · 2024-002L

PAYLOAD ACTIVE UNKNOWN

§ Identity

Operator
Country
US
Launch date
2024-01-03
Launch site
AFWTR
Launch vehicle
Mass (kg)
RCS (m²)

Purposes: comms

External: N2YO · Heavens-Above · Gunter

§ Orbital elements

Epoch: 2026-05-25T04:17:12.638400Z

Period
94.03 min
Inclination
53.1603°
Eccentricity
0.0002527
Mean motion
15.31469765 rev/d
Perigee alt
469.7 km
Apogee alt
473.2 km
Semi-major
6,849.6 km
B*
5.0090e-3
RAAN
234.8217°
Arg perigee
73.8179°
Mean anomaly
286.3101°
Rev number
13,372

§ Raw data

STARLINK-311021 58715U 24002L   26145.17861850  .00157254  00000+0  50090-2 0  99972 58715  53.1603 234.8217 0002527  73.8179 286.3101 15.31469765133728

JSON: /api/v1/satellites/58715 · /tle

For live sub-satellite position, see the globe view (requires WebGL).

§ Visibility from observer

Set your observer location to see the next 7 days of passes ≥ 10°. The values pass through the URL so the page stays shareable.

No JS? Fill the form by hand. The geolocation button needs JavaScript.